TimeCEST,TemperatureF,Dew PointF,Humidity,Sea Level PressureIn,VisibilityMPH,Wind Direction,Wind SpeedMPH,Gust SpeedMPH,PrecipitationIn,Events,Conditions,WindDirDegrees,DateUTC
12:45 AM,62.6,57.2,82,30.01,-9999.0,NNW,8.1,-,N/A,,Clear,340,2013-06-12 22:45:00
1:45 AM,60.8,55.4,82,30.04,-9999.0,NNW,9.2,-,N/A,,Clear,340,2013-06-12 23:45:00
2:00 AM,61,56,77,30.02,25,NNW,8.9,,,,Partly Cloudy,340,2013-06-13 00:00:00
2:45 AM,60.8,55.4,82,30.04,-9999.0,NNW,9.2,-,N/A,,Clear,340,2013-06-13 00:45:00
3:45 AM,59.0,55.4,88,30.04,-9999.0,North,9.2,-,N/A,,Clear,350,2013-06-13 01:45:00
4:45 AM,57.2,55.4,94,30.04,-9999.0,NNW,6.9,-,N/A,,Clear,330,2013-06-13 02:45:00
5:45 AM,57.2,55.4,94,30.04,-9999.0,NW,8.1,-,N/A,,Clear,320,2013-06-13 03:45:00
6:15 AM,59.0,55.4,88,30.04,-9999.0,NNW,6.9,-,N/A,,Clear,340,2013-06-13 04:15:00
6:45 AM,62.6,55.4,77,30.04,-9999.0,North,8.1,-,N/A,,Clear,350,2013-06-13 04:45:00
7:15 AM,64.4,55.4,73,30.06,-9999.0,North,11.5,-,N/A,,Clear,360,2013-06-13 05:15:00
7:45 AM,66.2,55.4,68,30.06,-9999.0,North,10.4,-,N/A,,Clear,360,2013-06-13 05:45:00
8:00 AM,66,56,62,30.05,25,North,11.2,,,,Partly Cloudy,0,2013-06-13 06:00:00
8:15 AM,66.2,55.4,68,30.06,-9999.0,North,11.5,-,N/A,,Clear,350,2013-06-13 06:15:00
8:45 AM,68.0,57.2,68,30.06,-9999.0,North,12.7,-,N/A,,Clear,360,2013-06-13 06:45:00
9:15 AM,69.8,57.2,64,30.06,-9999.0,North,13.8,-,N/A,,Clear,360,2013-06-13 07:15:00
9:45 AM,71.6,59.0,64,30.06,-9999.0,North,13.8,-,N/A,,Clear,360,2013-06-13 07:45:00
10:15 AM,71.6,59.0,64,30.06,-9999.0,North,12.7,-,N/A,,Clear,360,2013-06-13 08:15:00
10:45 AM,73.4,59.0,61,30.06,-9999.0,North,12.7,-,N/A,,Clear,360,2013-06-13 08:45:00
11:15 AM,75.2,60.8,61,30.06,6.2,North,11.5,-,N/A,,Partly Cloudy,10,2013-06-13 09:15:00
11:45 AM,75.2,60.8,61,30.06,6.2,North,11.5,-,N/A,,Partly Cloudy,360,2013-06-13 09:45:00
12:15 PM,77.0,59.0,54,30.06,6.2,North,11.5,-,N/A,,Partly Cloudy,360,2013-06-13 10:15:00
12:45 PM,77.0,62.6,61,30.06,6.2,North,10.4,-,N/A,,Partly Cloudy,360,2013-06-13 10:45:00
1:15 PM,78.8,60.8,54,30.06,6.2,North,11.5,-,N/A,,Partly Cloudy,350,2013-06-13 11:15:00
1:45 PM,78.8,60.8,54,30.04,6.2,North,10.4,-,N/A,,Partly Cloudy,350,2013-06-13 11:45:00
2:00 PM,78,61,46,30.04,25,North,11.2,,,,Partly Cloudy,350,2013-06-13 12:00:00
2:15 PM,78.8,59.0,51,30.04,6.2,North,12.7,-,N/A,,Scattered Clouds,350,2013-06-13 12:15:00
2:45 PM,80.6,60.8,51,30.04,6.2,North,9.2,-,N/A,,Scattered Clouds,360,2013-06-13 12:45:00
3:15 PM,80.6,57.2,45,30.04,6.2,North,10.4,-,N/A,,Scattered Clouds,350,2013-06-13 13:15:00
3:45 PM,80.6,60.8,51,30.04,6.2,NNE,9.2,-,N/A,,Scattered Clouds,20,2013-06-13 13:45:00
4:15 PM,80.6,59.0,48,30.01,6.2,North,10.4,-,N/A,,Scattered Clouds,360,2013-06-13 14:15:00
4:45 PM,78.8,60.8,54,30.01,6.2,North,10.4,-,N/A,,Scattered Clouds,10,2013-06-13 14:45:00
5:15 PM,78.8,57.2,47,30.01,6.2,NNW,10.4,-,N/A,,Scattered Clouds,330,2013-06-13 15:15:00
5:45 PM,78.8,55.4,44,30.01,6.2,NNW,11.5,-,N/A,,Partly Cloudy,330,2013-06-13 15:45:00
6:15 PM,78.8,57.2,47,30.01,6.2,NNW,10.4,-,N/A,,Partly Cloudy,330,2013-06-13 16:15:00
6:45 PM,78.8,57.2,47,30.01,6.2,NNW,8.1,-,N/A,,Partly Cloudy,340,2013-06-13 16:45:00
7:15 PM,77.0,59.0,54,30.01,6.2,NNW,6.9,-,N/A,,Partly Cloudy,340,2013-06-13 17:15:00
7:45 PM,75.2,59.0,57,30.01,-9999.0,NNW,5.8,-,N/A,,Clear,340,2013-06-13 17:45:00
8:00 PM,76,59,46,30.00,19,NNW,6.7,,,,Partly Cloudy,340,2013-06-13 18:00:00
8:45 PM,69.8,60.8,73,30.04,-9999.0,NNW,4.6,-,N/A,,Clear,340,2013-06-13 18:45:00
9:15 PM,68.0,60.8,78,30.04,-9999.0,NNW,4.6,-,N/A,,Clear,330,2013-06-13 19:15:00
9:45 PM,66.2,60.8,83,30.04,-9999.0,NW,4.6,-,N/A,,Clear,310,2013-06-13 19:45:00
10:45 PM,64.4,60.8,88,30.04,-9999.0,NNW,3.5,-,N/A,,Clear,330,2013-06-13 20:45:00
11:45 PM,60.8,59.0,94,30.04,-9999.0,NW,2.3,-,N/A,,Clear,320,2013-06-13 21:45:00